Regional Weather Roundup
Issued by NWS

Home | Current Version | Previous Version | Text Only | Print | Product List | Glossary On
Versions: 1 2 3 4 5 6 7 8 9 10 11 12 13 14 15 16 17 18 19 20 21 22 23 24 25 26 27 28 29 30 31 32 33 34 35 36 37 38 39 40 41 42 43 44 45 46 47 48 49 50
000
ASUS42 KTBW 010710
RWRFL
FLORIDA REGIONAL WEATHER ROUNDUP
NATIONAL WEATHER SERVICE TAMPA BAY RUSKIN FL
300 AM EDT MON SEP 01 2014

NOTE: "FAIR" INDICATES FEW OR NO CLOUDS BELOW 12,000 FEET WITH NO
SIGNIFICANT WEATHER AND/OR OBSTRUCTIONS TO VISIBILITY.


FLZ001>010-012>015-112-114-115-010800-
PANHANDLE FLORIDA

CITY           SKY/WX    TMP DP  RH WIND       PRES   REMARKS
PENSACOLA      PTCLDY    79  75  87 S6        30.06S
PENSACOLA NAS  CLEAR     82  76  81 S8        30.05F
MILTON NAS     PTCLDY    74  71  91 CALM      30.07S
CRESTVIEW      CLEAR     72  71  97 CALM      30.09F
DUKE FIELD     FAIR      73  73 100 CALM      30.07F
MARY ESTHER    CLEAR     83  72  69 N3        30.05F
TRI COUNTY     FAIR      72  71  97 CALM      30.09F
PANAMA CITY    FAIR      76  73  91 CALM      30.06F
TYNDALL AFB    CLEAR     77  77  99 E2        30.08F
APALACHICOLA   CLEAR     77  75  93 CALM      30.06F

STATION/POSITION SKY/WX   TEMP    WIND        PRES    WAVE   SWELL
                          AIR SEA DIR/SP/G            HT/PER HT/PER
                          (F)     (DEG/KT/KT) (MB)    (FT/S) (FT/S)
30.1N   87.6W              84 86  160/ 10/ 12 1017.6F   3/ 8   3/ 8
28.8N   86.0W              84 86  140/ 10/ 12 1017.5F   4/ 7   3/ 7
PANAMA CITY BEAC           84 87  160/  6/  7 1018.0F
CAPE SAN BLAS    NOT AVBL
TOWER C                    83     150/ 10/ 11 1018.1F
28.5N   84.5W              84 86  110/  6/  8 1018.1F   3/ 5   3/ 5

$$
FLZ011-016>038-118-127-128-134-139-239-010800-
NORTH FLORIDA

CITY           SKY/WX    TMP DP  RH WIND       PRES   REMARKS
MARIANNA       CLEAR     75  74  96 CALM      30.07F
TALLAHASSEE    PTCLDY    75  71  87 CALM      30.08F
PERRY          CLOUDY    75  72  88 CALM      30.09F
CROSS CITY       N/A     75  73  93 CALM      30.09F
LAKE CITY      FAIR      73  72  94 CALM      30.09F
GAINESVILLE    CLEAR     75  72  90 CALM      30.10F
MAYPORT NAS    PTCLDY    80  75  84 SW3       30.10F
JACKSONVILLE   PTCLDY    76  74  93 SE6       30.09F
JAX NAS        PTCLDY    83  73  72 SW6       30.10F
JAX CRAIG      PTCLDY    79  74  84 CALM      30.10F
JAX CECIL      PTCLDY    72  72 100 CALM      30.10F
FERNANDINA BEA FAIR      79  73  83 CALM      30.08F
ST AUGUSTINE   CLEAR     78  74  87 S5        30.10F

STATION/POSITION SKY/WX   TEMP    WIND        PRES    WAVE   SWELL
                          AIR SEA DIR/SP/G            HT/PER HT/PER
                          (F)     (DEG/KT/KT) (MB)    (FT/S) (FT/S)
SHELL POINT                80     340/  1/  2   N/A
KEATON BEACH               76      60/  3/  4 1018.6F
CEDAR KEY                  80      50/  6/  6 1019.0F
FERNANDINA                 80 86  240/  3/  5 1018.6F
30.7N   81.3W                 84                N/A     2/ 9
MAYPORT                    80 85  280/  4/  6   N/A
31.4N   80.9W              83 85  250/ 12/ 16 1018.7F   2/10   2/10
ST AUGUSTINE               79     200/  7/  8 1019.6F

$$
FLZ040-043>046-052-053-057-058-063-144-010800-
INTERIOR CENTRAL FLORIDA

CITY           SKY/WX    TMP DP  RH WIND       PRES   REMARKS
OCALA          CLEAR     75  72  88 CALM      30.10F
LEESBURG       CLEAR     80  76  87 SE5       30.11F
SANFORD        CLEAR     78  74  87 CALM      30.10F
ORLANDO EXEC   CLEAR     79  74  84 CALM      30.10F
ORLANDO INTL   PTCLDY    77  75  93 CALM      30.10F
WINTER HAVEN   CLEAR     79  73  82 SE5       30.11F
LAKELAND       CLEAR     75  75 100 CALM      30.10F
BARTOW         FAIR      75  75 100 CALM      30.11F
OKEECHOBEE       N/A     73  72  94 MISG      30.10

$$
FLZ041-047-054-059-064-141-147-010800-
EAST CENTRAL FLORIDA

CITY           SKY/WX    TMP DP  RH WIND       PRES   REMARKS
DAYTONA BEACH  CLEAR     76  74  93 CALM      30.11F
DELAND         SUNNY     75  73  94 CALM      30.11F
JFK SPACE CTR  CLEAR     75  74  95 CALM      30.10F
CAPE CANAVERAL CLEAR     75  73  93 CALM      30.09F
PATRICK AFB    CLEAR     82  76  81 S7        30.09F
MELBOURNE      CLEAR     79  74  84 CALM      30.10F
VERO BEACH     CLEAR     74  72  93 CALM      30.09F
FT PIERCE      CLEAR     75  72  90 CALM      30.09F
STUART         CLEAR     77  72  83 CALM      30.10F

STATION/POSITION SKY/WX   TEMP    WIND        PRES    WAVE   SWELL
                          AIR SEA DIR/SP/G            HT/PER HT/PER
                          (F)     (DEG/KT/KT) (MB)    (FT/S) (FT/S)
28.5N   80.2W              84 85  160/  8/ 12 1019.7F
28.9N   78.5W              83 84  160/  4/  6 1019.8F   3/ 9   3/ 9
TRIDENT PIER               82 86  140/  5/  7 1018.8F
28.4N   80.5W                 84                N/A     2/ 9
27.6N   80.2W                 86                N/A     2/ 9

$$
FLZ050-056-061-142-242-148-248-149-249-151-251-155-255-
160-260-010800-
WEST CENTRAL FLORIDA

CITY           SKY/WX    TMP DP  RH WIND       PRES   REMARKS
CRYSTAL RIVER  FAIR      73  72  94 CALM      30.09F
INVERNESS      FAIR      75  73  94 CALM      30.11F
BROOKSVILLE    CLEAR     75  73  93 CALM      30.11F
ZEPHYRHILLS    FAIR      70  70 100 CALM      30.10F
CLEARWATER     PTCLDY    81  75  82 E7        30.08F
TAMPA INTL     CLEAR     78  73  84 NE6       30.09F
TAMPA EXEC     CLEAR     77  73  88 CALM      30.09F
PLANT CITY     CLEAR     77 N/A N/A CALM      30.11F
MACDILL AFB    CLEAR     77  75  93 NE6       30.08F
ST PETERSBURG  CLEAR     83  75  77 E8        30.06F
SARASOTA       PTCLDY    80  75  84 NE6       30.06F
VENICE           N/A    N/A N/A N/A MISG        N/A

STATION/POSITION SKY/WX   TEMP    WIND        PRES    WAVE   SWELL
                          AIR SEA DIR/SP/G            HT/PER HT/PER
                          (F)     (DEG/KT/KT) (MB)    (FT/S) (FT/S)
CEDAR KEY                  80      50/  6/  6 1019.0F
28.5N   84.5W              84 86  110/  6/  8 1018.1F   3/ 5   3/ 5
27.3N   84.3W                 86                N/A     3/ 6
CLEARWATER BEACH           82 88   60/  4/  5 1018.5S
MIDDLE TAMPA BAY           83     100/  8/  9 1018.9F
VENICE                     77 88   50/  5/  7 1018.1F

$$
FLZ066-069-070-075>078-162-262-165-265-010800-
SOUTHWEST FLORIDA AND KEYS

CITY           SKY/WX    TMP DP  RH WIND       PRES   REMARKS
PUNTA GORDA    CLEAR     76  73  91 NE5       30.09F
FT MYERS       CLEAR     76  74  93 CALM      30.06F
SOUTHWEST INTL CLEAR     75  73  93 NE5       30.07F
NAPLES         CLEAR     77  74  90 NE5       30.06F
MARCO ISLAND   SUNNY     75  73  94 NE6       30.06F
MARATHON       PTCLDY    84  77  79 E6        30.03F
KEY WEST NAS   PTCLDY    85  74  69 E13       30.03F
KEY WEST INTL  MOCLDY    85  75  72 E9        30.03F

STATION/POSITION SKY/WX   TEMP    WIND        PRES    WAVE   SWELL
                          AIR SEA DIR/SP/G            HT/PER HT/PER
                          (F)     (DEG/KT/KT) (MB)    (FT/S) (FT/S)
VENICE                     77 88   50/  5/  7 1018.1F
NAPLES                     77      60/  3/  4 1018.3F
DRY TORTUGAS               85     100/ 14/ 17 1014.5F
NW FL BAY                  84      70/ 12/ 14 1017.9F
SAND KEY                   85     100/ 15/ 17 1016.8F
SOMBRERO KEY               85      90/ 14/ 15 1017.7F
LONG KEY                   85 86   80/ 13/ 15 1017.9F
MOLASSES REEF              84 87   70/ 11/ 13 1017.0F

$$
FLZ067-068-071>074-168-172>174-010800-
SOUTHEAST FLORIDA

CITY           SKY/WX    TMP DP  RH WIND       PRES   REMARKS
W PALM BEACH   PTCLDY    83  74  74 E8        30.07F
FT LAUDER-EXEC CLEAR     82  76  81 E7        30.06F
FT LAUDERDALE  PTCLDY    85  73  67 E6        30.06F
POMPANO BEACH    N/A    N/A N/A N/A MISG      30.07F
PEMBROKE PINES CLEAR     80  73  79 E5        30.07F
OPA LOCKA      CLEAR     81  73  76 E6        30.06F
MIAMI          PTCLDY    83  74  74 E6        30.06F
WEST KENDALL   PTCLDY    81  74  79 NE8       30.05F
HOMESTEAD      CLEAR     83  75  77 E8        30.05F

STATION/POSITION SKY/WX   TEMP    WIND        PRES    WAVE   SWELL
                          AIR SEA DIR/SP/G            HT/PER HT/PER
                          (F)     (DEG/KT/KT) (MB)    (FT/S) (FT/S)
PORT EVERGLADES            85      80/  8/ 11 1017.9
VIRGINIA KEY               85 87   90/  9/ 12   N/A
LAKE WORTH                 84 87  110/  9/ 11 1018.2F
FOWEY ROCKS                85 87   90/ 12/ 13 1017.9F
SETTLEMENT POINT           83     130/  4/  6 1019.4F

$$



USA.gov is the U.S. government's official web portal to all federal, state and local government web resources and services.